Regional Weather Roundup
Issued by NWS

Home | Current Version | Previous Version | Graphics & Text | Print | Product List | Glossary On
Versions: 1 2 3 4 5 6 7 8 9 10 11 12 13 14 15 16 17 18 19 20 21 22 23 24 25 26 27 28 29 30 31 32 33 34 35 36 37 38 39 40 41 42 43 44 45 46 47 48 49
000
ASUS45 KBOI 070410
RWRID

IDAHO REGIONAL WEATHER ROUNDUP
NATIONAL WEATHER SERVICE BOISE ID
900 PM MST SAT FEB 06 2016

NOTE: "FAIR" INDICATES FEW OR NO CLOUDS BELOW 12000 FEET
WITH NO SIGNIFICANT WEATHER AND/OR OBSTRUCTIONS TO VISIBILITY

IDZ012-014-070500-
SOUTHWEST IDAHO


CITY           SKY/WX    TMP DP  RH WIND       PRES   REMARKS
BOISE          PTCLDY    34  30  85 NW6       30.45R WCI  29
CALDWELL       MOCLDY    32  29  88 W7        30.48R WCI  26
MOUNTAIN HOME  MOCLDY    35  35 100 NW3       30.43S
$$

IDZ016-017-070500-
SOUTHCENTRAL IDAHO


CITY           SKY/WX    TMP DP  RH WIND       PRES   REMARKS
BURLEY         MOCLDY    36  27  69 SW10      30.39R WCI  28
JEROME         PTCLDY    35  26  69 S6        30.41R WCI  30
TWIN FALLS     PTCLDY    35  28  75 S12       30.41R WCI  27
$$

IDZ019>023-070500-
SOUTHEAST IDAHO


CITY           SKY/WX    TMP DP  RH WIND       PRES   REMARKS
IDAHO FALLS    CLOUDY    21  17  84 N7        30.39S WCI  12
POCATELLO      CLOUDY    36  24  62 S17       30.38F WCI  26
REXBURG        CLOUDY    20  17  88 NE5       30.38F WCI  13
$$

IDZ006-010-011-018-031-032-070500-
CENTRAL IDAHO MOUNTAINS


CITY           SKY/WX    TMP DP  RH WIND       PRES   REMARKS
MCCALL         CLOUDY    25  23  92 CALM      30.38S
HAILEY         PTCLDY    23  19  86 NW8       30.37R WCI  14
STANLEY          N/A     30  20  66 VRB3      30.38R
SALMON         PTCLDY    28  21  74 W3        30.35R
CHALLIS        CLOUDY    28  20  71 CALM      30.33S
$$

IDZ002-004-006-007-026-070500-
NORTHERN IDAHO


CITY           SKY/WX    TMP DP  RH WIND       PRES   REMARKS
LEWISTON       PTCLDY    43  30  60 E3        30.44R
LOWELL           N/A     35  33  92 CALM      30.47R
COEUR D`ALENE  CLEAR     34  28  80 SE5       30.40R WCI  30
MULLAN PASS    CLOUDY    21  18  88 W8        30.27R WCI  11
$$



USA.gov is the U.S. government's official web portal to all federal, state and local government web resources and services.